DW7447 Weather Reports


time (UTC)temp
F
wind
direction
speed
knots
gust
knots
rain 1hr
in
rain 24hr
in
rain mn
in
humidity
%
barometer
mb
20260508004534 51 206 7.8 18.2 0.00 0.00 0.00 80 1015.0
20260508004033 51 183 11.3 18.2 0.00 0.00 0.00 80 1015.1
20260508003532 51 168 7.8 15.6 0.00 0.00 0.00 79 1015.0
20260508003035 51 164 7.0 14.8 0.00 0.00 0.00 79 1015.1
20260508002533 51 159 8.7 15.6 0.00 0.00 0.00 79 1015.1
20260508002033 51 171 9.6 15.6 0.00 0.00 0.00 78 1015.1
20260508001033 51 180 5.2 14.8 0.00 0.00 0.00 78 1015.2
20260508000532 51 161 6.1 14.8 0.00 0.00 0.00 78 1015.1
20260508000032 51 203 8.7 14.8 0.00 0.00 0.00 78 1015.3
20260507235534 51 175 7.8 16.5 0.00 0.00 0.00 78 1015.3
20260507235035 51 176 7.8 16.5 0.00 0.00 0.00 78 1015.1
20260507234533 51 178 7.0 14.8 0.00 0.00 0.00 78 1015.1
20260507234035 51 166 7.0 14.8 0.00 0.00 0.00 79 1015.1
20260507233033 51 176 8.7 18.2 0.00 0.00 0.00 78 1015.1
20260507232533 51 180 5.2 18.2 0.00 0.00 0.00 79 1015.0
20260507232034 51 188 8.7 19.1 0.00 0.00 0.00 79 1015.1
20260507231533 51 145 9.6 19.1 0.00 0.00 0.00 79 1015.1
20260507231032 51 172 8.7 15.6 0.00 0.00 0.00 79 1015.1
20260507230532 51 164 7.0 15.6 0.00 0.00 0.00 79 1015.1
20260507225533 51 152 7.0 16.5 0.00 0.00 0.00 79 1015.1
20260507225033 51 210 6.1 14.8 0.00 0.00 0.00 79 1015.0
20260507224535 51 175 5.2 15.6 0.00 0.00 0.00 79 1015.1
20260507224034 51 192 11.3 15.6 0.00 0.00 0.00 79 1014.9
20260507223532 51 173 8.7 15.6 0.00 0.00 0.00 79 1014.8
20260507223033 51 141 9.6 13.9 0.00 0.00 0.00 79 1014.9
20260507222533 51 141 6.1 17.4 0.00 0.00 0.00 79 1014.9
20260507222034 51 159 6.1 17.4 0.00 0.00 0.00 79 1015.0
20260507221532 51 135 7.8 13.9 0.00 0.00 0.00 79 1015.0
20260507221033 51 157 7.8 14.8 0.00 0.00 0.00 78 1014.9
20260507220033 51 141 7.0 18.2 0.00 0.00 0.00 78 1015.1
20260507215535 51 189 8.7 18.2 0.00 0.00 0.00 77 1015.1
20260507215032 51 152 8.7 15.6 0.00 0.00 0.00 77 1015.1
20260507214032 51 121 7.0 13.9 0.00 0.00 0.00 77 1015.1
20260507213532 51 158 5.2 12.2 0.00 0.00 0.00 77 1015.2
20260507213036 51 142 7.0 13.9 0.00 0.00 0.00 77 1015.1
20260507212535 51 147 6.1 16.5 0.00 0.00 0.00 77 1015.1
20260507212033 51 144 8.7 16.5 0.00 0.00 0.00 77 1015.0
20260507211033 52 178 5.2 14.8 0.00 0.00 0.00 78 1015.1
20260507210534 52 165 8.7 14.8 0.00 0.00 0.00 77 1015.0
20260507210029 52 130 5.2 13.9 0.00 0.00 0.00 77 1015.1
20260507205532 52 155 7.0 13.9 0.00 0.00 0.00 77 1014.9
20260507205032 52 149 7.8 14.8 0.00 0.00 0.00 77 1014.9
20260507204533 51 145 7.8 14.8 0.00 0.00 0.00 78 1014.9
20260507203532 51 137 7.8 15.6 0.00 0.00 0.00 79 1014.9
20260507202532 51 140 7.0 19.1 0.00 0.00 0.00 79 1014.9
20260507202032 52 165 5.2 12.2 0.00 0.00 0.00 79 1014.8
20260507201532 52 123 8.7 12.2 0.00 0.00 0.00 79 1014.8
20260507201033 52 148 7.0 14.8 0.00 0.00 0.00 79 1014.8
20260507200034 52 147 6.1 12.2 0.00 0.00 0.00 77 1014.8
20260507195533 52 103 7.0 12.2 0.00 0.00 0.00 77 1014.7
20260507195034 52 133 6.1 12.2 0.00 0.00 0.00 77 1014.7
20260507194532 52 110 7.0 12.2 0.00 0.00 0.00 77 1014.6
20260507194035 53 173 5.2 13.0 0.00 0.00 0.00 77 1014.5
20260507193535 53 155 7.8 13.0 0.00 0.00 0.00 77 1014.5
20260507193040 53 127 5.2 9.6 0.00 0.00 0.00 77 1014.4
20260507192037 53 130 7.0 12.2 0.00 0.00 0.00 77 1014.5
20260507191533 53 152 5.2 14.8 0.00 0.00 0.00 77 1014.6
20260507191033 53 165 5.2 14.8 0.00 0.00 0.00 76 1014.5
20260507190532 53 134 6.1 13.0 0.00 0.00 0.00 76 1014.5
20260507190032 54 114 4.3 12.2 0.00 0.00 0.00 76 1014.6
20260507185033 54 154 3.5 9.6 0.00 0.00 0.00 75 1014.4
20260507184532 54 140 4.3 11.3 0.00 0.00 0.00 74 1014.4
20260507183533 55 138 3.5 11.3 0.00 0.00 0.00 71 1014.2
20260507183033 55 59 6.1 11.3 0.00 0.00 0.00 71 1014.2
20260507182034 55 134 4.3 11.3 0.00 0.00 0.00 69 1014.2
20260507181533 55 154 6.1 10.4 0.00 0.00 0.00 68 1014.2
20260507181035 56 155 3.5 11.3 0.00 0.00 0.00 68 1014.2
20260507180534 56 121 4.3 11.3 0.00 0.00 0.00 67 1014.2
20260507180033 56 158 4.3 11.3 0.00 0.00 0.00 65 1014.3
20260507175540 56 155 4.3 13.9 0.00 0.00 0.00 65 1014.4
20260507175036 56 141 4.3 13.9 0.00 0.00 0.00 63 1014.3
20260507174533 56 168 4.3 9.6 0.00 0.00 0.00 64 1014.4
20260507174033 56 186 4.3 9.6 0.00 0.00 0.00 64 1014.4
20260507173533 56 204 2.6 7.8 0.00 0.00 0.00 64 1014.4
20260507173033 56 183 3.5 7.8 0.00 0.00 0.00 64 1014.3
20260507172533 56 178 2.6 10.4 0.00 0.00 0.00 64 1014.3
20260507172033 56 190 5.2 10.4 0.00 0.00 0.00 64 1014.4
20260507171533 56 196 4.3 9.6 0.00 0.00 0.00 63 1014.3
20260507171034 56 182 5.2 10.4 0.00 0.00 0.00 63 1014.3
20260507170533 56 192 6.1 10.4 0.00 0.00 0.00 63 1014.4
20260507165532 56 199 7.0 12.2 0.00 0.00 0.00 64 1014.5
20260507165033 56 193 5.2 9.6 0.00 0.00 0.00 64 1014.6
20260507164532 56 200 3.5 10.4 0.00 0.00 0.00 64 1014.6
20260507164034 56 185 5.2 10.4 0.00 0.00 0.00 63 1014.6
20260507163533 56 206 4.3 10.4 0.00 0.00 0.00 64 1014.5
20260507163032 56 217 4.3 10.4 0.00 0.00 0.00 63 1014.5
20260507162534 56 190 3.5 9.6 0.00 0.00 0.00 63 1014.5
20260507161535 55 213 4.3 7.8 0.00 0.00 0.00 63 1014.6
20260507161033 55 161 2.6 9.6 0.00 0.00 0.00 63 1014.6
20260507160535 55 196 5.2 13.0 0.00 0.00 0.00 63 1014.6
20260507155533 55 182 6.1 11.3 0.00 0.00 0.00 61 1014.6
20260507155034 55 202 5.2 12.2 0.00 0.00 0.00 61 1014.7
20260507154032 55 189 5.2 11.3 0.00 0.00 0.00 61 1014.7
20260507153534 56 171 6.1 13.0 0.00 0.00 0.00 61 1014.7
20260507153030 56 200 7.8 13.0 0.00 0.00 0.00 61 1014.8
20260507152529 56 203 6.1 11.3 0.00 0.00 0.00 62 1014.8
20260507152029 55 179 7.8 13.9 0.00 0.00 0.00 61 1014.8
20260507151529 55 202 5.2 13.9 0.00 0.00 0.00 63 1014.8
20260507151030 55 209 7.8 13.9 0.00 0.00 0.00 64 1014.8
20260507150531 55 202 6.1 15.6 0.00 0.00 0.00 64 1014.9
20260507145504 55 188 7.0 14.8 0.00 0.00 0.00 63 1014.8
20260507145004 55 172 8.7 14.8 0.00 0.00 0.00 63 1014.9
20260507144504 55 195 7.0 12.2 0.00 0.00 0.00 64 1014.9
20260507144004 55 166 3.5 9.6 0.00 0.00 0.00 64 1014.9
20260507143433 55 183 6.1 12.2 0.00 0.00 0.00 64 1014.9
20260507142933 55 196 8.7 12.2 0.00 0.00 0.00 64 1015.0
20260507142431 55 197 7.0 12.2 0.00 0.00 0.00 65 1015.0
20260507141931 55 155 5.2 16.5 0.00 0.00 0.00 65 1015.1
20260507141430 55 192 7.8 16.5 0.00 0.00 0.00 64 1015.1
20260507140930 55 172 5.2 13.9 0.00 0.00 0.00 64 1015.0
20260507140430 55 192 7.8 15.6 0.00 0.00 0.00 63 1015.0
20260507135932 55 173 6.1 15.6 0.00 0.00 0.00 62 1015.2
20260507134930 56 135 6.1 17.4 0.00 0.00 0.00 61 1015.2
20260507134431 56 176 10.4 15.6 0.00 0.00 0.00 62 1015.2
20260507133929 56 185 7.8 14.8 0.00 0.00 0.00 61 1015.2
20260507133433 56 189 7.0 15.6 0.00 0.00 0.00 61 1015.3
20260507132931 56 169 9.6 16.5 0.00 0.00 0.00 62 1015.2
20260507132431 56 168 9.6 16.5 0.00 0.00 0.00 60 1015.2
20260507131932 56 168 10.4 16.5 0.00 0.00 0.00 60 1015.2
20260507130431 57 140 7.8 17.4 0.00 0.00 0.00 61 1015.2
20260507125930 57 144 7.0 17.4 0.00 0.00 0.00 60 1015.1
20260507124931 57 200 8.7 17.4 0.00 0.00 0.00 60 1015.2
20260507124432 57 199 8.7 17.4 0.00 0.00 0.00 60 1015.2
20260507123932 57 203 10.4 17.4 0.00 0.00 0.00 60 1015.2
20260507122932 57 186 6.1 13.9 0.00 0.00 0.00 62 1015.0
20260507122430 57 235 7.8 16.5 0.00 0.00 0.00 62 1015.2
20260507121930 57 226 8.7 16.5 0.00 0.00 0.00 63 1015.2
20260507121429 57 245 7.0 13.0 0.00 0.00 0.00 62 1015.2
20260507120933 56 197 6.1 14.8 0.00 0.00 0.00 63 1015.2
20260507120430 56 188 7.8 14.8 0.00 0.00 0.00 64 1015.2
20260507115930 56 219 7.0 13.0 0.00 0.00 0.00 64 1015.3
20260507115430 56 178 7.8 13.9 0.00 0.00 0.00 64 1015.3
20260507114429 57 190 7.8 16.5 0.00 0.00 0.00 61 1015.3
20260507113931 56 154 5.2 15.6 0.00 0.00 0.00 65 1015.3
20260507113433 56 185 8.7 15.6 0.00 0.00 0.00 64 1015.2
20260507112430 53 196 9.6 14.8 0.00 0.00 0.00 71 1015.3
20260507111933 53 202 7.0 14.8 0.00 0.00 0.00 72 1015.3
20260507110931 52 227 4.3 13.9 0.00 0.00 0.00 74 1015.3
20260507110431 51 186 7.0 13.9 0.00 0.00 0.00 74 1015.5
20260507105932 51 228 5.2 13.9 0.00 0.00 0.00 75 1015.5
20260507105433 51 185 7.8 13.9 0.00 0.00 0.00 76 1015.5
20260507104934 51 228 5.2 13.0 0.00 0.00 0.00 75 1015.5
20260507104430 50 200 5.2 13.0 0.00 0.00 0.00 75 1015.6
20260507103931 50 193 6.1 10.4 0.00 0.00 0.00 76 1015.6
20260507103431 51 216 5.2 13.0 0.00 0.00 0.00 75 1015.6
20260507102931 50 166 7.8 16.5 0.00 0.00 0.00 75 1015.6
20260507102432 51 162 5.2 16.5 0.00 0.00 0.00 75 1015.6
20260507101931 51 173 7.0 12.2 0.00 0.00 0.00 75 1015.5
20260507101431 50 175 4.3 16.5 0.00 0.00 0.00 75 1015.6
20260507100931 51 193 7.8 18.2 0.00 0.00 0.00 74 1015.6
20260507095932 50 204 7.0 12.2 0.00 0.00 0.00 74 1015.7
20260507095432 50 231 5.2 16.5 0.00 0.00 0.00 75 1015.6
20260507094933 50 223 8.7 16.5 0.00 0.00 0.00 75 1015.6
20260507094432 49 197 9.6 14.8 0.00 0.00 0.00 76 1015.6
20260507093930 49 213 8.7 14.8 0.00 0.00 0.00 76 1015.6
20260507092930 49 231 9.6 13.9 0.00 0.00 0.00 77 1015.7
20260507092432 49 217 6.1 16.5 0.00 0.00 0.00 78 1015.6
20260507091930 49 162 7.0 16.5 0.00 0.00 0.00 79 1015.6
20260507091433 49 214 5.2 14.8 0.00 0.00 0.00 79 1015.5
20260507090430 49 219 7.0 13.0 0.00 0.00 0.00 79 1015.7
20260507085930 49 173 6.1 15.6 0.00 0.00 0.00 79 1015.6
20260507084931 49 196 6.1 13.0 0.00 0.00 0.00 79 1015.8
20260507084431 49 173 5.2 13.0 0.00 0.00 0.00 79 1015.8
20260507083939 48 189 6.1 13.0 0.00 0.00 0.00 80 1015.9
20260507083432 48 223 3.5 13.0 0.00 0.00 0.00 79 1015.9
20260507082930 48 192 8.7 13.0 0.00 0.00 0.00 79 1015.9
20260507082430 48 219 7.0 12.2 0.00 0.00 0.00 79 1015.9
20260507081933 48 195 3.5 14.8 0.00 0.00 0.00 78 1015.9
20260507081430 48 166 8.7 14.8 0.00 0.00 0.00 78 1015.9
20260507080932 48 171 7.8 14.8 0.00 0.00 0.00 78 1015.9
20260507080432 48 157 6.1 12.2 0.00 0.00 0.00 79 1015.8
20260507075932 48 182 3.5 10.4 0.00 0.00 0.00 79 1015.8
20260507075431 47 227 1.7 7.8 0.00 0.00 0.00 80 1015.8
20260507074932 47 182 3.5 9.6 0.00 0.00 0.00 79 1015.8
20260507073933 47 196 5.2 11.3 0.00 0.00 0.00 80 1015.8
20260507072929 46 155 5.2 11.3 0.00 0.00 0.00 80 1015.7
20260507072432 46 178 4.3 12.2 0.00 0.00 0.00 81 1015.7
20260507071930 46 185 3.5 12.2 0.00 0.00 0.00 81 1015.8
20260507071432 46 172 4.3 7.8 0.00 0.00 0.00 83 1015.7
20260507065929 45 135 4.3 11.3 0.00 0.00 0.00 85 1015.7
20260507065432 45 141 4.3 11.3 0.00 0.00 0.00 85 1015.7
20260507064931 44 169 4.3 10.4 0.00 0.00 0.00 86 1015.7
20260507064432 44 140 4.3 10.4 0.00 0.00 0.00 89 1015.7
20260507063930 44 196 4.3 10.4 0.00 0.00 0.00 89 1015.8
20260507063430 43 179 4.3 10.4 0.00 0.00 0.00 90 1015.6
20260507062931 43 189 1.7 7.0 0.00 0.00 0.00 91 1015.6
20260507062431 42 162 3.5 7.0 0.00 0.00 0.00 92 1015.6
20260507061932 42 68 0.0 4.3 0.00 0.00 0.00 93 1015.6
20260507061430 41 0 0.9 4.3 0.00 0.00 0.00 93 1015.7
20260507060932 41 0 0.9 3.5 0.00 0.00 0.00 94 1015.7
20260507060431 40 0 0.9 3.5 0.00 0.00 0.00 94 1015.6
20260507055931 40 162 0.0 4.3 0.00 0.00 0.00 94 1015.6
20260507054931 39 93 1.7 4.3 0.00 0.00 0.00 94 1015.6
20260507054432 38 237 0.9 3.5 0.00 0.00 0.00 94 1015.6
20260507053931 38 237 0.0 2.6 0.00 0.00 0.00 93 1015.5
20260507053431 38 237 0.0 3.5 0.00 0.00 0.00 93 1015.6
20260507052430 38 237 0.0 4.3 0.00 0.00 0.00 94 1015.5
20260507051931 37 237 0.9 5.2 0.00 0.00 0.00 94 1015.5
20260507051431 37 248 1.7 5.2 0.00 0.00 0.00 93 1015.5
20260507050932 36 279 1.7 4.3 0.00 0.00 0.00 93 1015.5
20260507045930 36 21 0.9 3.5 0.00 0.00 0.00 92 1015.4
20260507045429 36 343 0.0 3.5 0.00 0.00 0.00 92 1015.6
20260507044930 36 296 0.0 4.3 0.00 0.00 0.00 92 1015.6
20260507043930 36 295 0.9 4.3 0.00 0.00 0.00 92 1015.6
20260507042930 36 254 0.9 3.5 0.00 0.00 0.00 92 1015.6
20260507042430 36 254 0.0 3.5 0.00 0.00 0.00 92 1015.6
20260507041929 36 254 0.9 3.5 0.00 0.00 0.00 92 1015.4
20260507041429 36 258 0.0 3.5 0.00 0.00 0.00 92 1015.5
20260507040931 36 258 0.0 3.5 0.00 0.00 0.00 92 1015.5
20260507035931 36 176 0.0 3.5 0.00 0.00 0.00 92 1015.5
20260507035430 36 178 0.0 3.5 0.00 0.00 0.00 92 1015.5
20260507034932 36 176 0.9 3.5 0.00 0.00 0.00 92 1015.4
20260507034432 36 176 0.0 3.5 0.00 0.00 0.00 92 1015.5
20260507033431 36 178 0.9 4.3 0.00 0.00 0.00 92 1015.5
20260507032929 36 166 1.7 4.3 0.00 0.00 0.00 92 1015.5
20260507031932 35 169 0.9 3.5 0.00 0.00 0.00 91 1015.6
20260507031431 35 169 0.0 3.5 0.00 0.00 0.00 91 1015.6
20260507030930 35 169 0.0 3.5 0.00 0.00 0.00 90 1015.6
20260507030431 35 169 0.0 3.5 0.00 0.00 0.00 90 1015.6
20260507025930 35 138 0.9 2.6 0.00 0.00 0.00 90 1015.6
20260507025431 35 138 0.0 1.7 0.00 0.00 0.00 89 1015.7
20260507024931 35 138 0.0 1.7 0.00 0.00 0.00 89 1015.7
20260507024431 35 138 0.0 3.5 0.00 0.00 0.00 89 1015.6
20260507023430 36 138 0.0 3.5 0.00 0.00 0.00 89 1015.7
20260507022432 36 138 0.0 2.6 0.00 0.00 0.00 89 1015.7
20260507021931 36 138 0.0 3.5 0.00 0.00 0.00 89 1015.6
20260507021431 36 138 0.0 3.5 0.00 0.00 0.00 89 1015.7
20260507020930 37 138 0.0 1.7 0.00 0.00 0.00 89 1015.6
20260507020430 37 138 0.0 1.7 0.00 0.00 0.00 89 1015.7
20260507015931 37 138 0.0 3.5 0.00 0.00 0.00 89 1015.7
20260507015431 37 138 0.0 4.3 0.00 0.00 0.00 89 1015.7
20260507014929 37 138 1.7 4.3 0.00 0.00 0.00 89 1015.7
20260507014429 37 148 0.9 4.3 0.00 0.00 0.00 89 1015.7
20260507013931 37 173 1.7 4.3 0.00 0.00 0.00 89 1015.8
20260507013430 37 182 0.0 3.5 0.00 0.00 0.00 89 1015.8
20260507012430 37 182 0.0 4.3 0.00 0.00 0.00 88 1015.8
20260507011931 37 182 0.9 6.1 0.00 0.00 0.00 88 1015.8
20260507011431 37 179 0.9 6.1 0.00 0.00 0.00 88 1015.8
20260507010430 37 180 0.9 3.5 0.00 0.00 0.00 88 1015.8
20260507005931 37 178 0.0 3.5 0.00 0.00 0.00 88 1015.9
20260507005431 38 178 1.7 4.3 0.00 0.00 0.00 88 1015.9